When you browse on this site, cookies collect data to enhance your experience and personalize the content and advertising you see.
Visit our Privacy Policy to learn more. By continuing to use the site, you agree to this use of cookies and data.
  • En España
  • Lista de países
  • Para 7 días
  • Temperatura del agua
  • El tiempo en el mapa
  • Informadores
  • user-avatar
    Iniciar sesión

    Tiempo cada hora Paro

    Hoy, 22 Febrero, Sábado

    Tiempo Temperatura Precipitaciones Viento Presión Humedad
    00:00 +5°C° 0 mm 1 mps 562 mmHg 76%
    01:00 +5°C° 0 mm 1 mps 562 mmHg 74%
    02:00 +5°C° 0 mm 1 mps 561 mmHg 71%
    03:00 +5°C° 0 mm 1 mps 561 mmHg 68%
    04:00 +5°C° 0.1 mm 1 mps 561 mmHg 71%
    05:00 +5°C° 0.1 mm 1 mps 561 mmHg 73%
    06:00 +6°C° 0 mm 1 mps 562 mmHg 78%
    07:00 +6°C° 0.7 mm 1 mps 562 mmHg 81%
    08:00 +7°C° 0.7 mm 1 mps 563 mmHg 83%
    09:00 +8°C° 0.7 mm 1 mps 563 mmHg 85%
    10:00 +9°C° 0.3 mm 1 mps 564 mmHg 81%
    11:00 +9°C° 0.3 mm 2 mps 564 mmHg 77%
    12:00 +10°C° 0.3 mm 3 mps 564 mmHg 72%
    13:00 +10°C° 0.5 mm 3 mps 563 mmHg 75%
    14:00 +10°C° 0.5 mm 3 mps 562 mmHg 77%
    15:00 +9°C° 0.5 mm 3 mps 561 mmHg 79%
    16:00 +8°C° 0.8 mm 2 mps 561 mmHg 85%
    17:00 +7°C° 0.8 mm 2 mps 560 mmHg 92%
    18:00 +7°C° 0.8 mm 1 mps 560 mmHg 98%
    19:00 +7°C° 0.9 mm 1 mps 561 mmHg 97%
    20:00 +6°C° 0.9 mm 1 mps 561 mmHg 97%
    21:00 +6°C° 0.9 mm 1 mps 562 mmHg 97%
    22:00 +6°C° 0.4 mm 1 mps 561 mmHg 97%
    23:00 +6°C° 0.4 mm 1 mps 561 mmHg 97%

    Mañana, 23 Febrero, Domingo

    Tiempo Temperatura Precipitaciones Viento Presión Humedad
    00:00 +5°C° 0.4 mm 1 mps 561 mmHg 97%
    01:00 +5°C° 0.1 mm 1 mps 560 mmHg 96%
    02:00 +4°C° 0.1 mm 1 mps 560 mmHg 96%
    03:00 +3°C° 0.1 mm 1 mps 559 mmHg 95%
    04:00 +3°C° 0 mm 1 mps 559 mmHg 93%
    05:00 +2°C° 0 mm 1 mps 558 mmHg 91%
    06:00 -1°C° 0 mm 2 mps 558 mmHg 89%
    07:00 +4°C° 0 mm 1 mps 560 mmHg 82%
    08:00 +6°C° 0 mm 1 mps 561 mmHg 75%
    09:00 +9°C° 0 mm 1 mps 563 mmHg 69%
    10:00 +10°C° 0 mm 1 mps 563 mmHg 65%
    11:00 +11°C° 0 mm 1 mps 564 mmHg 62%
    12:00 +12°C° 0 mm 2 mps 564 mmHg 58%
    13:00 +10°C° 0.4 mm 2 mps 563 mmHg 64%
    14:00 +9°C° 0.4 mm 2 mps 562 mmHg 69%
    15:00 +9°C° 0.4 mm 2 mps 561 mmHg 75%
    16:00 +7°C° 0.4 mm 2 mps 560 mmHg 82%
    17:00 +7°C° 0.4 mm 1 mps 559 mmHg 89%
    18:00 +5°C° 0.4 mm 1 mps 558 mmHg 96%
    19:00 +5°C° 0.1 mm 1 mps 558 mmHg 95%
    20:00 +4°C° 0.1 mm 1 mps 559 mmHg 94%
    21:00 +4°C° 0.1 mm 1 mps 559 mmHg 94%
    22:00 +4°C° 0.1 mm 1 mps 559 mmHg 94%
    23:00 +4°C° 0.1 mm 1 mps 559 mmHg 93%

    Pasado mañana, 24 Febrero, Lunes

    Tiempo Temperatura Precipitaciones Viento Presión Humedad
    00:00 +3°C° 0.1 mm 1 mps 558 mmHg 93%
    01:00 +3°C° 0.2 mm 1 mps 558 mmHg 93%
    02:00 +3°C° 0.2 mm 1 mps 558 mmHg 93%
    03:00 +3°C° 0.2 mm 1 mps 557 mmHg 93%
    04:00 +3°C° 0 mm 1 mps 557 mmHg 92%
    05:00 +2°C° 0 mm 1 mps 557 mmHg 90%
    06:00 +2°C° 0 mm 1 mps 556 mmHg 89%
    07:00 +4°C° 0 mm 1 mps 558 mmHg 83%
    08:00 +6°C° 0 mm 1 mps 559 mmHg 76%
    09:00 +7°C° 0 mm 0 mps 561 mmHg 70%
    10:00 +9°C° 0.1 mm 1 mps 561 mmHg 67%
    11:00 +9°C° 0.1 mm 2 mps 562 mmHg 65%
    12:00 +10°C° 0.1 mm 2 mps 562 mmHg 62%
    13:00 +10°C° 0.5 mm 2 mps 561 mmHg 67%
    14:00 +9°C° 0.5 mm 2 mps 560 mmHg 71%
    15:00 +9°C° 0.5 mm 2 mps 559 mmHg 75%
    16:00 +7°C° 0.3 mm 2 mps 558 mmHg 82%
    17:00 +6°C° 0.3 mm 1 mps 557 mmHg 88%
    18:00 +5°C° 0.3 mm 1 mps 557 mmHg 95%
    19:00 +4°C° 0 mm 1 mps 557 mmHg 93%
    20:00 +3°C° 0 mm 1 mps 557 mmHg 92%
    21:00 +3°C° 0 mm 1 mps 557 mmHg 90%
    22:00 +3°C° 0 mm 1 mps 557 mmHg 89%
    23:00 +3°C° 0 mm 1 mps 557 mmHg 88%

    25 Febrero, Martes

    Tiempo Temperatura Precipitaciones Viento Presión Humedad
    00:00 +2°C° 0 mm 2 mps 557 mmHg 87%
    01:00 +3°C° 0 mm 1 mps 557 mmHg 86%
    02:00 +3°C° 0 mm 1 mps 557 mmHg 85%
    03:00 +3°C° 0 mm 1 mps 556 mmHg 85%
    04:00 +3°C° 0 mm 1 mps 556 mmHg 85%
    05:00 +3°C° 0 mm 1 mps 556 mmHg 86%
    06:00 +3°C° 0 mm 1 mps 557 mmHg 86%
    07:00 +4°C° 0.1 mm 1 mps 558 mmHg 85%
    08:00 +6°C° 0.1 mm 1 mps 559 mmHg 83%
    09:00 +7°C° 0.1 mm 1 mps 560 mmHg 81%
    10:00 +7°C° 1.1 mm 1 mps 559 mmHg 84%
    11:00 +7°C° 1.1 mm 1 mps 559 mmHg 87%
    12:00 +8°C° 1.1 mm 1 mps 559 mmHg 90%
    13:00 +6°C° 1.6 mm 2 mps 558 mmHg 92%
    14:00 +6°C° 1.6 mm 2 mps 558 mmHg 93%
    15:00 +6°C° 1.6 mm 2 mps 557 mmHg 95%
    16:00 +6°C° 1.6 mm 1 mps 557 mmHg 96%
    17:00 +6°C° 1.6 mm 1 mps 556 mmHg 97%
    18:00 +5°C° 1.6 mm 1 mps 556 mmHg 98%
    19:00 +5°C° 1.1 mm 1 mps 556 mmHg 98%
    20:00 +5°C° 1.1 mm 1 mps 557 mmHg 98%
    21:00 +4°C° 1.1 mm 0 mps 557 mmHg 98%
    22:00 +3°C° 0.1 mm 0 mps 557 mmHg 97%
    23:00 +3°C° 0.1 mm 0 mps 557 mmHg 97%

    26 Febrero, Miércoles

    Tiempo Temperatura Precipitaciones Viento Presión Humedad
    00:00 +3°C° 0.1 mm 1 mps 556 mmHg 96%
    01:00 +3°C° 0 mm 1 mps 556 mmHg 96%
    02:00 +2°C° 0 mm 1 mps 556 mmHg 95%
    03:00 +2°C° 0 mm 1 mps 555 mmHg 94%
    04:00 +2°C° 0 mm 1 mps 555 mmHg 92%
    05:00 +1°C° 0 mm 1 mps 555 mmHg 90%
    06:00 -1°C° 0 mm 2 mps 555 mmHg 87%
    07:00 +2°C° 0.4 mm 1 mps 556 mmHg 89%
    08:00 +4°C° 0.4 mm 1 mps 557 mmHg 91%
    09:00 +4°C° 0.4 mm 0 mps 558 mmHg 92%
    10:00 +6°C° 0.9 mm 1 mps 558 mmHg 94%
    11:00 +5°C° 0.9 mm 2 mps 558 mmHg 95%
    12:00 +6°C° 0.9 mm 2 mps 558 mmHg 97%
    13:00 +6°C° 0.7 mm 2 mps 557 mmHg 95%
    14:00 +6°C° 0.7 mm 2 mps 557 mmHg 94%
    15:00 +6°C° 0.7 mm 2 mps 557 mmHg 92%
    16:00 +6°C° 0.5 mm 1 mps 556 mmHg 94%
    17:00 +5°C° 0.5 mm 1 mps 556 mmHg 96%
    18:00 +4°C° 0.5 mm 1 mps 556 mmHg 98%
    19:00 +3°C° 0.2 mm 1 mps 556 mmHg 98%
    20:00 +3°C° 0.2 mm 1 mps 556 mmHg 97%
    21:00 +3°C° 0.2 mm 1 mps 557 mmHg 96%
    22:00 +2°C° 0.1 mm 1 mps 556 mmHg 95%
    23:00 +2°C° 0.1 mm 1 mps 556 mmHg 94%

    27 Febrero, Jueves

    Tiempo Temperatura Precipitaciones Viento Presión Humedad
    00:00 -1°C° 0.1 mm 2 mps 556 mmHg 92%
    01:00 -1°C° 0 mm 2 mps 555 mmHg 90%
    02:00 -2°C° 0 mm 2 mps 555 mmHg 88%
    03:00 -2°C° 0 mm 2 mps 554 mmHg 86%
    04:00 -2°C° 0 mm 2 mps 554 mmHg 85%
    05:00 -3°C° 0 mm 2 mps 554 mmHg 83%
    06:00 -3°C° 0 mm 2 mps 554 mmHg 82%
    07:00 +1°C° 0 mm 2 mps 556 mmHg 79%
    08:00 +4°C° 0 mm 1 mps 558 mmHg 76%
    09:00 +7°C° 0 mm 1 mps 560 mmHg 74%
    10:00 +8°C° 0 mm 1 mps 560 mmHg 74%
    11:00 +9°C° 0 mm 1 mps 560 mmHg 73%
    12:00 +11°C° 0 mm 1 mps 561 mmHg 73%
    13:00 +11°C° 0.2 mm 1 mps 560 mmHg 75%
    14:00 +11°C° 0.2 mm 1 mps 560 mmHg 77%
    15:00 +10°C° 0.2 mm 1 mps 559 mmHg 79%
    16:00 +9°C° 0.1 mm 1 mps 558 mmHg 84%
    17:00 +7°C° 0.1 mm 1 mps 557 mmHg 90%
    18:00 +4°C° 0.1 mm 0 mps 557 mmHg 95%
    19:00 +4°C° 0 mm 1 mps 557 mmHg 88%
    20:00 +3°C° 0 mm 2 mps 557 mmHg 81%
    21:00 +2°C° 0 mm 2 mps 557 mmHg 73%
    22:00 +2°C° 0 mm 2 mps 557 mmHg 71%
    23:00 +1°C° 0 mm 2 mps 556 mmHg 69%
    Mostrar más